OBJECT R, 47947

Orbit data source: Space-Track

You're viewing an Uncataloged Satellite

Recently launched and/or uncataloged satellites may have evolving metadata. Metadata may include but not limited to: Owner, Maufacturer, Bus, Motor, and Mission.

OBJECT R, 47947 is a satellite in SSO that was launched on Mon, 22 Mar 2021 UTC via a SOYUZ-2-1A launch vehicle from the Tyuratam Missile And Space Complex (TTMTR). Unknown objects in Earth's orbit typically refer to objects detected orbiting the Earth but have not yet been identified or cataloged. These objects could be anything from previously untracked satellites, spent rocket stages, debris from satellite collisions, or even natural meteoroids temporarily captured by Earth's gravity.

Loading next visibility...
Identifier
47947, 2021-022R
Orbit
SSO
Country
Flag of TBDTBD
Related business
None
Manufacturer
Unknown
Mission
Civil Imaging
Bus & Motor
Unknown
Mass
Unknown
Launch date (UTC)
2021-03-22 (5 years ago)
Launch vehicle
SOYUZ-2-1A
Launch site
Tyuratam Missile And Space Complex (TTMTR)
Object type
Unknown
Shape & HBR
Box, 0.3 m
Radar Cross Section
0.195 m², Medium (>0.1 m² and < 1m²)

Expand to show TLE details & history
Last TLE update: 22 hours ago

TLE from 22 hours ago
0 OBJECT R
1 47947U 21022R   26172.53505513  .00000754  00000-0  51390-4 0  9991
2 47947  97.3570  47.9405 0018010 152.9428 207.2744 15.09000948288666
Epoch: 2026-06-21T12:50Z
TLE epoch observation values (Epoch: 2026-06-21T12:50:28.763Z)
Latitude
-0.00001°
Longitude
-54.41328°
Altitude
553.409 km
Speed
7.579 km/s
True Right ascension
03h 11m 45s
True Declination
0° 00' 00"
Sunlit
Object was in daylight at epoch
Visualization orbit readout
Latitude
Unknown
Longitude
Unknown
Altitude
Unknown
Speed
Unknown
Apparent Right ascension
Unknown
Apparent Declination
Unknown
Sunlit
N/A
Visualization observer readout
Local Sidereal Time
21:43:08
Azimuth
Unknown
Elevation
Unknown
Doppler factor
Unknown
Orbital elements
Apogee altitude
548.683 km
Perigee altitude
523.777 km
Semi-major axis
6,914.367 km
Eccentricity
0.0018
Inclination
97.357°
RAAN
47.9405°
Arg. of periapsis
152.9428°
True anomaly
207.18002°
Mean anomaly
207.2744°
Eccentric anomaly
207.22719°
Mean motion
3.77498 °/min
Orbital period
95.36 mins
BSTAR
0.00005139
Loading maneuver chart data...
Computing Atmospheric mass density...

Documentation

Showing up to 5 results
|